Miscellaneous Local Product
Issued by NWS Hastings, NE

Home | Current Version | Previous Version | Text Only | Print | Product List | Glossary Off
Versions: 1 2 3 4 5 6 7 8 9 10 11 12 13 14 15 16 17 18 19 20 21 22 23 24 25 26 27 28 29 30 31 32 33 34 35 36 37 38 39 40 41 42 43 44 45 46 47 48 49 50

000
AXUS43 KGID 040702
MISGRI

GID CWA HOURLY WEATHER ROUNDUP
NATIONAL WEATHER SERVICE HASTINGS NE
200 AM CDT MON MAY 04 2015

NOTE: "FAIR" INDICATES FEW OR NO CLOUDS BELOW 12,000 FEET WITH NO
SIGNIFICANT WEATHER AND/OR OBSTRUCTIONS TO VISIBILITY.

...SOUTH CENTRAL NEBRASKA...

CITY           SKY/WX    TMP DP  RH WIND       PRES   REMARKS
GRAND ISLAND   CLOUDY    61  42  49 NE18G29   29.94S
HASTINGS       CLOUDY    62  42  47 NE17G26   29.92S
KEARNEY        CLOUDY    61  37  41 N20       29.95R
ORD            CLOUDY    59  39  47 N7        30.01R
YORK           MOCLDY    63  48  59 NE22      29.92R
AURORA         CLOUDY    61  43  51 NE24      29.93R
LEXINGTON      CLOUDY    60  38  44 NE16      29.98S
HOLDREGE       CLOUDY    60  39  45 NE18      29.95R
HEBRON         CLOUDY    66  56  71 CALM      29.83R

...NEBRASKA PANHANDLE...

CITY           SKY/WX    TMP DP  RH WIND       PRES   REMARKS
CHADRON        CLOUDY    47  38  71 NE7       30.07R
ALLIANCE       CLOUDY    49  37  63 E7        30.07R
SCOTTSBLUFF    MOCLDY    54  39  57 E10       30.06F
SIDNEY         CLOUDY    51  39  63 E8        30.09R

...WESTERN AND NORTH CENTRAL NEBRASKA...

CITY           SKY/WX    TMP DP  RH WIND       PRES   REMARKS
VALENTINE      MOCLDY    51  30  44 NE10      30.08S
AINSWORTH      CLOUDY    55  28  35 NE9       30.09R
ONEILL         MOCLDY    57  38  48 N10       30.05R
BROKEN BOW     MOCLDY    60  38  43 NE17G26   30.01R
IMPERIAL       MOCLDY    55  38  52 E7        30.07R
NORTH PLATTE   MOCLDY    55  38  52 NE12      30.03R
MCCOOK         CLOUDY    61  40  45 S6        30.04R

...EASTERN NEBRASKA...

CITY           SKY/WX    TMP DP  RH WIND       PRES   REMARKS
NORFOLK        CLOUDY    63  40  42 NE13      30.00R
SO SIOUX CITY  CLOUDY    63  41  44 N9        29.97R
TEKAMAH        CLOUDY    60  47  61 N7        29.95R
COLUMBUS       CLOUDY    61  45  55 NE15G23   29.97S
ALBION         CLOUDY    62  38  41 N13       30.00R
OMAHA EPPLEY   CLOUDY    64  55  72 N9        29.92S
OFFUTT AFB     CLOUDY    64  57  77 N8        29.91R
MILLARD        CLOUDY    66  54  63 CALM      29.93R
LINCOLN        CLOUDY    64  55  72 E8        29.93R
NEBRASKA CITY  TSTM      58  52  80 SE17      29.93R
BEATRICE       MOCLDY    68  60  76 NE12G21   29.89R
FALLS CITY     CLOUDY    68  57  68 N17G29    29.93R

...NORTHERN KANSAS...

CITY           SKY/WX    TMP DP  RH WIND       PRES   REMARKS
GOODLAND       CLOUDY    60  47  61 NE13      30.02S
HILL CITY      CLOUDY    64  53  67 N14       29.92F
NORTON         SUNNY     63  39  42 NW18      29.97F
PHILLIPSBURG   CLEAR     70  46  43 NW10      29.92F
SMITH CENTER   CLEAR     64  46  52 N18       29.89R
BELOIT         CLEAR     70  52  52 S7        29.82S
HAYS           CLOUDY    66  48  52 W12       29.94R
RUSSELL        CLOUDY    69  52  54 SW12      29.91R
CONCORDIA      CLOUDY    69  58  67 S13G24    29.83F
SALINA         CLOUDY    68  58  70 S16       29.89F
TOPEKA         MOCLDY    70  55  59 S15G25    29.89S



USA.gov is the U.S. government's official web portal to all federal, state and local government web resources and services.